sat.trackr.live / text

‹ back to catalog

STARLINK-31622

NORAD 59456 · 2024-068B

PAYLOAD ACTIVE UNKNOWN

§ Identity

Operator
Country
US
Launch date
2024-04-10
Launch site
AFETR
Launch vehicle
Mass (kg)
RCS (m²)

Purposes: comms

External: N2YO · Heavens-Above · Gunter

§ Orbital elements

Epoch: 2026-05-24T21:17:16.088064Z

Period
94.27 min
Inclination
43.0035°
Eccentricity
0.0001503
Mean motion
15.27582666 rev/d
Perigee alt
482.0 km
Apogee alt
484.1 km
Semi-major
6,861.2 km
B*
-3.0071e-5
RAAN
324.4141°
Arg perigee
282.8355°
Mean anomaly
77.2329°
Rev number
12,017

§ Raw data

STARLINK-316221 59456U 24068B   26144.88699176 -.00001090  00000+0 -30071-4 0  99962 59456  43.0035 324.4141 0001503 282.8355  77.2329 15.27582666120176

JSON: /api/v1/satellites/59456 · /tle

For live sub-satellite position, see the globe view (requires WebGL).

§ Visibility from observer

Set your observer location to see the next 7 days of passes ≥ 10°. The values pass through the URL so the page stays shareable.

No JS? Fill the form by hand. The geolocation button needs JavaScript.